This is the latest recevied weather packets stored in our database for station/object 5B4ALR-13. If no packets are shown the sender has not sent any weather packets the latest 10 day(s).
| Time | Temp. | Humidity | Pressure | Rain* | Wind** | Luminosity | Snow |
|---|---|---|---|---|---|---|---|
| 1778383870 | 21.11° C | 32% | 1015.8 hPa | 0 mm | - | - | - |
| 1778383270 | 20.56° C | 33% | 1015.7 hPa | 0 mm | - | - | - |
| 1778382670 | 20.56° C | 31% | 1015.6 hPa | 0 mm | - | - | - |
| 1778382070 | 20.56° C | 31% | 1015.5 hPa | 0 mm | - | - | - |
| 1778381470 | 20.56° C | 31% | 1015.4 hPa | 0 mm | - | - | - |
| 1778380870 | 20.56° C | 31% | 1015.3 hPa | 0 mm | - | - | - |
| 1778380270 | 21.11° C | 30% | 1015.2 hPa | 0 mm | - | - | - |
| 1778379670 | 21.11° C | 30% | 1015.1 hPa | 0 mm | - | - | - |
| 1778379070 | 21.11° C | 30% | 1015.2 hPa | 0 mm | - | - | - |
| 1778378470 | 21.11° C | 31% | 1015.2 hPa | 0 mm | - | - | - |
| 1778377870 | 21.11° C | 30% | 1015.2 hPa | 0 mm | - | - | - |
| 1778377270 | 21.11° C | 31% | 1015.2 hPa | 0 mm | - | - | - |
| 1778376670 | 21.11° C | 32% | 1015.3 hPa | 0 mm | - | - | - |
| 1778376070 | 21.11° C | 31% | 1015.3 hPa | 0 mm | - | - | - |
| 1778375470 | 21.11° C | 31% | 1015.3 hPa | 0 mm | - | - | - |
| 1778374870 | 21.67° C | 30% | 1015.3 hPa | 0 mm | - | - | - |
| 1778374270 | 21.67° C | 29% | 1015.3 hPa | 0 mm | - | - | - |
| 1778373670 | 22.22° C | 29% | 1015.3 hPa | 0 mm | - | - | - |
| 1778373070 | 22.22° C | 28% | 1015.2 hPa | 0 mm | - | - | - |
| 1778372470 | 22.22° C | 28% | 1015.2 hPa | 0 mm | - | - | - |
| 1778371870 | 21.67° C | 31% | 1015.3 hPa | 0 mm | - | - | - |
| 1778371270 | 21.67° C | 32% | 1015.3 hPa | 0 mm | - | - | - |
| 1778370670 | 21.67° C | 31% | 1015.3 hPa | 0 mm | - | - | - |
| 1778370070 | 21.67° C | 34% | 1015.3 hPa | 0 mm | - | - | - |
| 1778369470 | 22.22° C | 36% | 1015.4 hPa | 0 mm | - | - | - |
* Rain latest hour (hover to see other rain measurements)
** Current wind speed in m/s (hover to see current wind gust speed)